DW3801 Weather Reports


time (UTC)temp
C
wind
direction
speed
KPH
gust
KPH
rain 1hr
cm
rain 24hr
cm
rain mn
cm
humidity
%
barometer
mb
20260508033353 16 251 3.2 8.0 0.00 0.00 0.00 88 1014.8
20260508032853 16 253 4.8 11.3 0.00 0.00 0.00 88 1014.8
20260508031853 16 261 1.6 4.8 0.00 0.00 0.00 87 1014.6
20260508031352 16 251 3.2 8.0 0.00 0.00 0.00 87 1014.5
20260508030853 16 255 1.6 4.8 0.00 0.00 0.00 87 1014.4
20260508030353 16 267 3.2 9.7 0.00 0.00 0.00 87 1014.4
20260508025853 16 256 1.6 9.7 0.00 0.00 0.00 86 1014.4
20260508024352 16 226 4.8 9.7 0.00 0.00 0.00 86 1014.2
20260508023852 16 242 4.8 9.7 0.00 0.00 0.00 86 1014.2
20260508023352 16 238 4.8 11.3 0.00 0.00 0.00 86 1014.2
20260508022853 16 270 3.2 9.7 0.00 0.00 0.00 86 1014.2
20260508022353 16 344 4.8 12.9 0.00 0.00 0.00 86 1014.0
20260508021852 16 326 8.0 12.9 0.00 0.00 0.00 85 1014.1
20260508020852 17 332 4.8 12.9 0.00 0.00 0.00 85 1014.0
20260508020353 17 343 8.0 19.3 0.00 0.00 0.00 85 1014.0
20260508015852 17 338 8.0 14.5 0.00 0.00 0.00 85 1014.0
20260508015353 17 329 8.0 16.1 0.00 0.00 0.00 83 1013.9
20260508014853 17 306 4.8 16.1 0.00 0.00 0.00 82 1013.9
20260508014353 17 328 6.4 16.1 0.00 0.00 0.00 81 1013.8
20260508013852 17 305 4.8 12.9 0.00 0.00 0.00 82 1013.8
20260508013352 17 343 4.8 14.5 0.00 0.00 0.00 82 1013.8
20260508012853 17 353 6.4 14.5 0.00 0.00 0.00 82 1013.8
20260508012352 17 341 8.0 16.1 0.00 0.00 0.00 82 1013.8
20260508011852 17 350 8.0 16.1 0.00 0.00 0.00 83 1013.8
20260508011353 17 0 9.7 19.3 0.00 0.00 0.00 83 1013.7
20260508010852 17 345 4.8 19.3 0.00 0.00 0.00 83 1013.7
20260508010352 17 331 8.0 14.5 0.00 0.00 0.00 83 1013.7
20260508005852 17 345 8.0 20.9 0.00 0.00 0.00 83 1013.7
20260508005353 17 345 8.0 22.5 0.00 0.00 0.00 83 1013.7
20260508004852 17 345 9.7 19.3 0.00 0.00 0.00 82 1013.8
20260508004352 17 356 6.4 16.1 0.00 0.00 0.00 83 1013.7
20260508003852 17 339 8.0 19.3 0.00 0.00 0.00 84 1013.8
20260508002852 17 345 11.3 20.9 0.00 0.00 0.00 83 1013.8
20260508002352 17 358 9.7 22.5 0.00 0.00 0.00 83 1013.8
20260508001353 17 341 9.7 20.9 0.00 0.00 0.00 83 1013.9
20260508000853 17 350 11.3 19.3 0.00 0.00 0.00 83 1014.0
20260507235852 17 314 8.0 16.1 0.00 0.00 0.00 82 1013.9
20260507235353 17 343 8.0 19.3 0.00 0.00 0.00 83 1014.0
20260507234853 17 267 8.0 19.3 0.00 0.00 0.00 82 1014.0
20260507234353 17 328 9.7 19.3 0.00 0.00 0.00 83 1014.0
20260507233852 17 307 8.0 19.3 0.00 0.00 0.00 84 1014.1
20260507233352 17 338 6.4 19.3 0.00 0.00 0.00 84 1014.2
20260507232852 17 320 8.0 19.3 0.00 0.00 0.00 84 1014.2
20260507232352 17 292 8.0 19.3 0.00 0.00 0.00 84 1014.2
20260507231852 17 310 9.7 19.3 0.00 0.00 0.00 83 1014.2
20260507231352 18 294 9.7 14.5 0.00 0.00 0.00 82 1014.2
20260507230853 18 257 6.4 19.3 0.00 0.00 0.00 82 1014.2
20260507230353 18 272 8.0 19.3 0.00 0.00 0.00 82 1014.2
20260507225352 18 300 9.7 20.9 0.00 0.00 0.00 80 1014.1
20260507224852 18 289 8.0 19.3 0.00 0.00 0.00 80 1014.2
20260507224352 18 298 9.7 20.9 0.00 0.00 0.00 80 1014.2
20260507223853 18 329 9.7 20.9 0.00 0.00 0.00 80 1014.3
20260507223353 18 322 9.7 19.3 0.00 0.00 0.00 81 1014.3
20260507222853 18 295 9.7 19.3 0.00 0.00 0.00 80 1014.5
20260507222353 18 285 9.7 19.3 0.00 0.00 0.00 80 1014.5
20260507221853 18 297 9.7 20.9 0.00 0.00 0.00 80 1014.6
20260507221352 18 287 9.7 24.1 0.00 0.00 0.00 80 1014.6
20260507220352 18 286 9.7 16.1 0.00 0.00 0.00 80 1014.8
20260507215852 18 318 12.9 22.5 0.00 0.00 0.00 80 1014.7
20260507215353 18 293 14.5 24.1 0.00 0.00 0.00 80 1014.7
20260507214852 18 274 14.5 25.7 0.00 0.00 0.00 79 1014.7
20260507214353 18 263 11.3 24.1 0.00 0.00 0.00 79 1014.7
20260507213852 18 280 9.7 20.9 0.00 0.00 0.00 79 1014.7
20260507212853 18 308 11.3 27.4 0.00 0.00 0.00 79 1014.8
20260507212352 18 287 11.3 22.5 0.00 0.00 0.00 79 1014.7
20260507211852 18 307 11.3 20.9 0.00 0.00 0.00 80 1014.7
20260507211353 18 332 11.3 24.1 0.00 0.00 0.00 79 1014.7
20260507210852 18 312 12.9 27.4 0.00 0.00 0.00 79 1014.9
20260507210352 18 321 8.0 20.9 0.00 0.00 0.00 80 1015.0
20260507205353 18 277 11.3 22.5 0.00 0.00 0.00 81 1015.1
20260507204852 18 330 11.3 22.5 0.00 0.00 0.00 80 1015.1
20260507204352 18 330 12.9 22.5 0.00 0.00 0.00 80 1015.1
20260507203853 18 314 9.7 22.5 0.00 0.00 0.00 81 1015.2
20260507203352 18 312 11.3 24.1 0.00 0.00 0.00 81 1015.2
20260507202852 18 330 14.5 27.4 0.00 0.00 0.00 81 1015.2
20260507201853 18 335 14.5 20.9 0.00 0.00 0.00 80 1015.3
20260507201352 18 324 9.7 25.7 0.00 0.00 0.00 81 1015.3
20260507200852 18 319 11.3 20.9 0.00 0.00 0.00 81 1015.3
20260507195852 18 336 14.5 24.1 0.00 0.00 0.00 81 1015.5
20260507194852 18 344 9.7 20.9 0.00 0.00 0.00 81 1015.5
20260507194352 18 344 12.9 22.5 0.00 0.00 0.00 81 1015.6
20260507193852 18 327 11.3 24.1 0.00 0.00 0.00 81 1015.6
20260507192852 18 334 11.3 22.5 0.00 0.00 0.00 81 1015.7
20260507192352 18 317 11.3 25.7 0.00 0.00 0.00 82 1015.7
20260507191852 18 341 12.9 20.9 0.00 0.00 0.00 81 1015.7
20260507190852 18 349 12.9 20.9 0.00 0.00 0.00 80 1015.9
20260507190352 18 344 9.7 19.3 0.00 0.00 0.00 82 1015.8
20260507185852 17 337 9.7 19.3 0.00 0.00 0.00 82 1015.9
20260507184852 17 342 9.7 20.9 0.00 0.00 0.00 81 1016.0
20260507184352 17 328 9.7 19.3 0.00 0.00 0.00 82 1016.0
20260507183853 17 325 11.3 19.3 0.00 0.00 0.00 82 1016.0
20260507182852 17 334 11.3 19.3 0.00 0.00 0.00 82 1016.1
20260507182352 17 318 9.7 19.3 0.00 0.00 0.00 82 1016.0
20260507181852 17 303 11.3 19.3 0.00 0.00 0.00 82 1016.1
20260507181353 17 277 9.7 19.3 0.00 0.00 0.00 82 1016.1
20260507180852 17 324 9.7 19.3 0.00 0.00 0.00 82 1016.2
20260507180352 17 331 9.7 19.3 0.00 0.00 0.00 81 1016.3
20260507175852 17 323 8.0 14.5 0.00 0.00 0.00 82 1016.2
20260507175352 17 335 8.0 19.3 0.00 0.00 0.00 82 1016.2
20260507174852 17 350 11.3 20.9 0.00 0.00 0.00 82 1016.2
20260507174353 17 346 9.7 14.5 0.00 0.00 0.00 82 1016.2
20260507173352 17 352 8.0 19.3 0.00 0.00 0.00 83 1016.3
20260507172352 17 355 8.0 16.1 0.00 0.00 0.00 83 1016.3
20260507171853 17 353 8.0 14.5 0.00 0.00 0.00 83 1016.4
20260507171352 17 329 8.0 14.5 0.00 0.00 0.00 83 1016.4
20260507170852 17 301 8.0 16.1 0.00 0.00 0.00 84 1016.3
20260507165852 17 313 8.0 16.1 0.00 0.00 0.00 84 1016.4
20260507165352 17 347 8.0 12.9 0.00 0.00 0.00 84 1016.4
20260507164852 17 355 6.4 12.9 0.00 0.00 0.00 85 1016.4
20260507164352 16 351 8.0 19.3 0.00 0.00 0.00 85 1016.4
20260507163852 16 349 8.0 12.9 0.00 0.00 0.00 85 1016.4
20260507163352 16 339 8.0 12.9 0.00 0.00 0.00 85 1016.5
20260507162852 16 348 6.4 12.9 0.00 0.00 0.00 86 1016.5
20260507162352 16 335 4.8 11.3 0.00 0.00 0.00 86 1016.4
20260507161852 16 358 8.0 12.9 0.00 0.00 0.00 86 1016.4
20260507161352 16 325 6.4 12.9 0.00 0.00 0.00 86 1016.4
20260507160353 16 338 8.0 14.5 0.00 0.00 0.00 86 1016.5
20260507155852 16 347 4.8 12.9 0.00 0.00 0.00 87 1016.5
20260507155352 16 345 6.4 12.9 0.00 0.00 0.00 86 1016.4
20260507154852 16 335 8.0 16.1 0.00 0.00 0.00 86 1016.4
20260507154352 16 330 4.8 9.7 0.00 0.00 0.00 87 1016.5
20260507153353 16 344 4.8 12.9 0.00 0.00 0.00 88 1016.4
20260507152853 16 353 6.4 9.7 0.00 0.00 0.00 88 1016.4
20260507152353 16 330 4.8 11.3 0.00 0.00 0.00 88 1016.4
20260507151852 16 342 4.8 12.9 0.00 0.00 0.00 88 1016.5
20260507151352 16 329 4.8 9.7 0.00 0.00 0.00 89 1016.6
20260507150852 16 313 3.2 11.3 0.00 0.00 0.00 88 1016.5
20260507150352 16 349 8.0 11.3 0.00 0.00 0.00 89 1016.5
20260507145852 16 315 3.2 9.7 0.00 0.00 0.00 90 1016.5
20260507145352 15 327 4.8 8.0 0.00 0.00 0.00 89 1016.4
20260507144352 15 313 4.8 8.0 0.00 0.00 0.00 90 1016.4
20260507143852 15 293 3.2 9.7 0.00 0.00 0.00 90 1016.4
20260507143352 15 313 3.2 8.0 0.00 0.00 0.00 90 1016.4
20260507142852 15 316 3.2 4.8 0.00 0.00 0.00 91 1016.3
20260507142352 15 275 3.2 4.8 0.00 0.00 0.00 90 1016.3
20260507141352 14 264 3.2 4.8 0.00 0.00 0.00 91 1016.2
20260507140852 14 251 3.2 4.8 0.00 0.00 0.00 91 1016.1
20260507140352 13 242 3.2 4.8 0.00 0.00 0.00 92 1016.1
20260507135852 13 247 1.6 3.2 0.00 0.00 0.00 92 1016.1
20260507135352 13 190 0.0 0.0 0.00 0.00 0.00 92 1016.1
20260507134853 13 190 0.0 0.0 0.00 0.00 0.00 91 1016.0
20260507134352 13 190 0.0 0.0 0.00 0.00 0.00 92 1015.9
20260507133352 12 190 1.6 4.8 0.00 0.00 0.00 92 1015.9
20260507132852 12 190 1.6 3.2 0.00 0.00 0.00 91 1015.8
20260507132352 12 190 1.6 3.2 0.00 0.00 0.00 91 1015.7
20260507131852 12 190 1.6 4.8 0.00 0.00 0.00 91 1015.7
20260507131352 12 190 1.6 3.2 0.00 0.00 0.00 91 1015.7
20260507130852 12 190 1.6 3.2 0.00 0.00 0.00 91 1015.7
20260507130352 12 190 1.6 3.2 0.00 0.00 0.00 91 1015.6
20260507125852 13 190 1.6 4.8 0.00 0.00 0.00 91 1015.5
20260507124852 13 190 0.0 3.2 0.00 0.00 0.00 92 1015.4
20260507124352 13 190 1.6 3.2 0.00 0.00 0.00 91 1015.5
20260507123852 13 190 1.6 3.2 0.00 0.00 0.00 91 1015.4
20260507123352 13 190 1.6 3.2 0.00 0.00 0.00 92 1015.5
20260507122851 12 190 1.6 3.2 0.00 0.00 0.00 91 1015.4
20260507122352 12 190 1.6 4.8 0.00 0.00 0.00 90 1015.4
20260507121852 12 190 1.6 3.2 0.00 0.00 0.00 90 1015.5
20260507121352 12 190 1.6 3.2 0.00 0.00 0.00 90 1015.4
20260507120852 12 190 1.6 3.2 0.00 0.00 0.00 90 1015.4
20260507120352 12 180 1.6 3.2 0.00 0.00 0.00 90 1015.5
20260507115852 12 182 1.6 3.2 0.00 0.00 0.00 90 1015.4
20260507115352 12 184 1.6 3.2 0.00 0.00 0.00 89 1015.4
20260507114852 13 184 1.6 3.2 0.00 0.00 0.00 90 1015.4
20260507114353 13 186 1.6 3.2 0.00 0.00 0.00 90 1015.5
20260507113852 13 237 1.6 3.2 0.00 0.00 0.00 89 1015.5
20260507113352 13 237 1.6 1.6 0.00 0.00 0.00 89 1015.4
20260507112852 13 237 1.6 3.2 0.00 0.00 0.00 89 1015.4
20260507112352 13 237 1.6 3.2 0.00 0.00 0.00 89 1015.5
20260507111852 13 237 0.0 1.6 0.00 0.00 0.00 89 1015.5
20260507111353 13 237 0.0 1.6 0.00 0.00 0.00 89 1015.5
20260507110852 13 237 1.6 3.2 0.00 0.00 0.00 89 1015.5
20260507110352 13 237 0.0 1.6 0.00 0.00 0.00 89 1015.6
20260507105853 13 194 0.0 3.2 0.00 0.00 0.00 89 1015.6
20260507105351 13 188 0.0 0.0 0.00 0.00 0.00 89 1015.7
20260507104852 13 188 0.0 0.0 0.00 0.00 0.00 89 1015.7
20260507104352 13 188 0.0 0.0 0.00 0.00 0.00 89 1015.8
20260507103852 13 188 0.0 0.0 0.00 0.00 0.00 89 1015.8
20260507103352 13 188 0.0 0.0 0.00 0.00 0.00 89 1015.9
20260507102852 13 188 0.0 0.0 0.00 0.00 0.00 89 1015.9
20260507102352 13 188 0.0 1.6 0.00 0.00 0.00 89 1015.9
20260507101352 13 188 0.0 1.6 0.00 0.00 0.00 89 1015.9
20260507100852 13 188 0.0 1.6 0.00 0.00 0.00 89 1016.0
20260507100352 13 188 1.6 3.2 0.00 0.00 0.00 89 1016.0
20260507095852 13 188 1.6 3.2 0.00 0.00 0.00 89 1016.0
20260507095353 13 188 1.6 3.2 0.00 0.00 0.00 90 1016.0
20260507094853 13 188 1.6 3.2 0.00 0.00 0.00 90 1016.0
20260507094352 13 188 0.0 1.6 0.00 0.00 0.00 90 1016.0
20260507092852 13 188 0.0 3.2 0.00 0.00 0.00 90 1016.2
20260507092352 13 187 1.6 3.2 0.00 0.00 0.00 90 1016.3
20260507091352 13 233 0.0 0.0 0.00 0.00 0.00 90 1016.3
20260507090853 13 233 0.0 0.0 0.00 0.00 0.00 90 1016.4
20260507090352 13 233 0.0 0.0 0.00 0.00 0.00 90 1016.4
20260507085853 13 233 0.0 0.0 0.00 0.00 0.00 90 1016.4
20260507085352 14 233 0.0 0.0 0.00 0.00 0.00 90 1016.5
20260507084852 14 233 0.0 0.0 0.00 0.00 0.00 90 1016.5
20260507084352 14 233 0.0 0.0 0.00 0.00 0.00 90 1016.5
20260507083853 14 233 0.0 1.6 0.00 0.00 0.00 90 1016.6
20260507083352 14 233 0.0 1.6 0.00 0.00 0.00 90 1016.6
20260507082852 14 233 0.0 3.2 0.00 0.00 0.00 90 1016.6
20260507082352 14 238 1.6 4.8 0.00 0.00 0.00 90 1016.6
20260507081852 14 259 1.6 4.8 0.00 0.00 0.00 90 1016.6
20260507081352 14 204 0.0 1.6 0.00 0.00 0.00 90 1016.7
20260507080852 14 203 0.0 3.2 0.00 0.00 0.00 90 1016.6
20260507080352 14 228 1.6 4.8 0.00 0.00 0.00 89 1016.6
20260507075853 15 288 3.2 4.8 0.00 0.00 0.00 89 1016.7
20260507074852 15 301 3.2 8.0 0.00 0.00 0.00 89 1016.8
20260507074352 15 298 3.2 4.8 0.00 0.00 0.00 88 1016.8
20260507073352 15 318 3.2 12.9 0.00 0.00 0.00 88 1016.9
20260507072852 15 322 4.8 12.9 0.00 0.00 0.00 88 1016.9
20260507072352 15 350 8.0 16.1 0.00 0.00 0.00 88 1016.9
20260507071852 15 330 6.4 14.5 0.00 0.00 0.00 88 1016.9
20260507070852 15 345 8.0 14.5 0.00 0.00 0.00 88 1017.0
20260507070352 15 293 8.0 16.1 0.00 0.00 0.00 88 1017.0
20260507065852 15 324 4.8 14.5 0.00 0.00 0.00 89 1017.0
20260507065352 15 314 6.4 14.5 0.00 0.00 0.00 90 1017.0
20260507064352 15 318 4.8 9.7 0.00 0.00 0.00 90 1017.0
20260507063852 15 306 1.6 4.8 0.00 0.00 0.00 90 1017.0
20260507063352 15 331 3.2 4.8 0.00 0.00 0.00 90 1017.1
20260507062852 15 253 3.2 4.8 0.00 0.00 0.00 90 1017.1
20260507062352 15 294 3.2 4.8 0.00 0.00 0.00 90 1017.1
20260507061852 15 323 3.2 4.8 0.00 0.00 0.00 90 1017.1
20260507061351 15 337 4.8 9.7 0.00 0.00 0.00 90 1017.1
20260507060853 15 315 3.2 8.0 0.00 0.00 0.00 90 1017.1
20260507060352 15 337 4.8 12.9 0.00 0.00 0.00 90 1017.1
20260507055852 15 342 8.0 14.5 0.00 0.00 0.00 90 1017.2
20260507055352 15 338 6.4 14.5 0.00 0.00 0.00 90 1017.2
20260507054852 15 330 4.8 14.5 0.00 0.00 0.00 90 1017.1
20260507054352 15 336 4.8 12.9 0.00 0.00 0.00 90 1017.2
20260507053852 15 343 6.4 12.9 0.00 0.00 0.00 90 1017.2
20260507053352 15 328 4.8 9.7 0.00 0.00 0.00 90 1017.2
20260507052853 15 323 4.8 12.9 0.00 0.00 0.00 90 1017.2
20260507052352 15 327 4.8 12.9 0.00 0.00 0.00 89 1017.3
20260507051851 15 337 4.8 16.1 0.00 0.00 0.00 89 1017.2
20260507051352 15 317 8.0 14.5 0.00 0.00 0.00 89 1017.2
20260507050852 15 332 4.8 12.9 0.00 0.00 0.00 89 1017.3
20260507050352 15 331 4.8 9.7 0.00 0.00 0.00 89 1017.2
20260507045852 15 347 6.4 12.9 0.00 0.00 0.00 89 1017.2
20260507045351 15 325 4.8 12.9 0.00 0.00 0.00 88 1017.2
20260507044352 15 308 4.8 12.9 0.00 0.00 0.00 89 1017.1
20260507043852 15 315 3.2 8.0 0.00 0.00 0.00 89 1017.1
20260507043352 15 301 3.2 11.3 0.00 0.00 0.00 89 1017.0
20260507042352 15 246 3.2 9.7 0.00 0.00 0.00 89 1017.0
20260507041852 15 251 4.8 11.3 0.00 0.00 0.00 88 1017.0
20260507041353 15 319 4.8 11.3 0.00 0.00 0.00 88 1017.0
20260507040353 15 299 4.8 9.7 0.00 0.00 0.00 88 1016.9
20260507035853 15 340 6.4 14.5 0.00 0.00 0.00 89 1016.9
20260507035352 15 316 6.4 12.9 0.00 0.00 0.00 88 1016.8
20260507034852 15 313 4.8 11.3 0.00 0.00 0.00 88 1016.7
20260507034352 15 296 3.2 9.7 0.00 0.00 0.00 88 1016.7
20260507033852 15 302 4.8 12.9 0.00 0.00 0.00 88 1016.7